Location: The Jewett Observatory
(46.7288°N, 117.1525°W)
Time: 02:16:35
(UTC-08:00)

Daily predictions for brighter satellites

Satellite Brightness Start Highest point End
(mag) Time Altitude Azimuth Time Altitude Azimuth Time Altitude Azimuth
CENTAUR R/B 4.4 02:58:46 24° E 02:58:46 24° E 03:03:04 10° ENE
Cosmos 2219 Rocket 4.4 03:31:13 18° NNE 03:31:13 18° NNE 03:32:34 10° NNE
Cosmos 2333 Rocket 4.1 03:38:55 23° NE 03:38:55 23° NE 03:41:00 10° NNE
SL-16 R/B 3.3 03:59:24 33° SSE 04:01:11 42° ESE 04:06:30 10° NE
Timation 1 Rocket 4.5 04:13:58 66° SSE 04:13:58 66° SSE 04:19:04 10° SSE
Cosmos 1680 Rocket 4.2 04:19:29 24° S 04:22:23 52° ESE 04:27:27 10° NNE
USA 215 3.7 04:18:20 10° ENE 04:24:46 57° SE 04:28:10 28° SSW
Cosmos 2181 Rocket 3.9 04:27:25 75° W 04:27:28 75° W 04:33:49 10° S
Cosmos 2237 Rocket 3.0 04:34:09 38° N 04:34:09 38° N 04:37:50 10° NNE
Cosmos 1709 Rocket 4.0 04:36:53 58° NW 04:36:53 58° NW 04:42:14 10° N
Tiangong 2 3.8 04:38:00 19° ESE 04:38:00 19° ESE 04:39:19 10° ESE
Feng Yun 1-1 Rocket 4.1 04:32:44 10° NNE 04:38:26 89° E 04:43:57 10° SSW
Cosmos 2112 Rocket 4.3 04:36:05 10° S 04:41:14 65° ESE 04:46:24 10° NNE
Cosmos 1536 Rocket 3.8 04:43:30 52° NNE 04:44:24 68° ENE 04:48:48 10° SSE
Meteor 1-18 Rocket 4.2 04:41:23 30° NNW 04:44:32 86° W 04:50:28 10° S
CENTAUR R/B 2.4 04:46:00 50° WSW 04:47:45 74° NW 04:54:50 10° NE
Cosmos 1238 Rocket 3.2 04:47:58 72° NNW 04:48:27 84° W 04:53:54 10° S
Gbstr 26 Del rocket 4.5 04:51:19 27° SSW 04:51:19 27° SSW 04:53:49 10° SSE
Lacrosse 5 rocket 2.8 04:54:48 26° N 04:54:48 26° N 04:57:26 10° NE
ADEOS II 3.5 04:51:10 10° N 04:53:22 24° NNW 04:53:22 24° NNW
Cosmos 2369 Rocket 3.4 04:54:08 15° N 04:58:35 40° NE 05:03:56 10° ESE
Okean 1 Rocket 4.4 05:02:14 10° SSE 05:06:22 41° E 05:10:30 10° NNE
ATLAS 3B R/B 4.3 05:04:33 18° NNW 05:06:37 20° N 05:11:36 10° NE
Cosmos 921 Rocket 3.0 05:08:50 56° WNW 05:09:24 62° WSW 05:13:51 10° S
Meteor 1-20 Rocket 4.0 05:04:08 10° SSW 05:09:43 82° WNW 05:15:16 10° N
Cosmos 2219 Rocket 3.7 05:12:57 20° NNW 05:12:57 20° NNW 05:15:53 10° N
Okean 1-7 Rocket 4.5 05:07:14 10° N 05:11:32 49° ENE 05:15:47 10° SSE
COSMO-SKYMED 1 2.4 05:07:34 10° S 05:11:53 70° WSW 05:13:28 38° NNW
SJ-6F 4.2 05:08:50 10° N 05:12:55 68° WNW 05:16:57 10° SSW
Lacrosse 5 4.0 05:08:48 10° S 05:13:02 26° SE 05:17:15 10° ENE
ATLAS 5 CENTAUR R/B 4.1 05:14:57 13° NNW 05:16:11 14° N 05:19:09 10° NNE
USA 129 4.4 05:14:21 10° SE 05:15:23 21° ESE 05:15:23 21° ESE
Cosmos 2333 Rocket 3.4 05:20:57 23° NNW 05:20:57 23° NNW 05:24:41 10° N
CZ-4C R/B 4.2 05:17:35 15° NNW 05:20:11 18° N 05:24:47 10° NE
Nadezhda 3 Rocket 4.2 05:14:14 10° N 05:20:38 77° E 05:27:01 10° SSE
Cosmos 2056 Rocket 3.3 05:17:27 22° NNW 05:20:54 84° WSW 05:26:01 10° SSE
Okean 1 3.4 05:21:05 48° WNW 05:21:33 51° W 05:25:28 10° S
USA 32 4.4 05:29:00 15° NNW 05:33:01 40° W 05:37:51 10° SSW
Meteor 1-19 Rocket 4.3 05:27:26 10° N 05:33:21 88° E 05:39:10 10° S
Cosmos 1624 Rocket 4.0 05:31:20 20° NNW 05:34:58 60° WSW 05:40:11 10° S
IDEFIX/ARIANE 42P 4.4 05:30:38 10° NNE 05:35:19 33° E 05:39:58 10° SSE
Cosmos 1812 4.5 05:38:57 17° SW 05:38:57 17° SW 05:40:18 10° SW
Cosmos 1300 Rocket 3.4 05:33:55 10° SSW 05:38:20 75° W 05:42:46 10° N
Cosmos 1371 Rocket 4.3 05:35:56 22° NW 05:39:01 46° WSW 05:44:01 10° S
Meteor 1-11 Rocket 3.9 05:33:20 10° S 05:39:11 79° E 05:44:57 10° NNE
Ariane Rocket 2.9 05:34:23 10° NNE 05:39:27 79° WNW 05:44:30 10° SSW
Cosmos 1602 3.7 05:35:38 10° S 05:39:34 86° W 05:43:34 10° N
Cosmos 1346 Rocket 3.3 05:40:03 31° WNW 05:40:54 35° W 05:44:30 10° SSW
Cosmos 2341 Rocket 4.3 05:34:42 10° S 05:40:58 73° E 05:47:13 10° NNE
Cosmos 2074 Rocket 4.2 05:37:56 10° SSW 05:43:55 45° WNW 05:49:56 10° N
SL-16 R/B 2.7 05:41:26 16° WSW 05:45:23 36° NW 05:50:36 10° NNE
Cosmos 292 Rocket 4.3 05:41:28 10° SW 05:45:56 36° WNW 05:50:24 10° N
SL-24 DEB 4.2 05:44:02 10° S 05:48:48 75° W 05:53:38 10° N
Meteor 1-13 Rocket 4.4 05:43:03 10° NNW 05:48:53 60° W 05:54:44 10° S
CZ-4 R/B 2.2 05:46:12 10° NNE 05:50:07 53° E 05:53:57 10° S
Cosmos 1943 Rocket 3.0 05:46:50 10° NNW 05:52:10 47° ENE 05:57:27 10° SE
Cosmos 2184 Rocket 4.4 05:52:12 10° SW 05:57:51 37° WNW 06:03:35 10° N
Lacrosse 4 Rocket 3.2 05:54:40 10° NNW 05:58:13 26° NE 06:01:41 10° ESE
Cosmos 2263 4.3 05:53:52 10° NNW 05:59:32 78° ENE 06:05:08 10° SSE
Meteor 1-23 Rocket 4.1 05:58:46 10° NNW 06:04:21 83° W 06:09:54 10° S
Cosmos 1680 Rocket 4.5 06:00:30 10° WSW 06:04:49 25° NW 06:09:08 10° N
Meteor 1-28 Rocket 4.0 06:02:30 10° SSW 06:05:52 30° W 06:09:00 12° NW
Cosmos 1633 2.9 06:04:14 10° SSW 06:07:43 42° WNW 06:11:13 10° N
USA 215 3.4 06:01:25 10° NE 06:07:49 58° NNW 06:14:10 10° WSW
Cosmos 1536 2.7 06:05:06 10° SSW 06:09:02 66° W 06:13:03 10° N
Abrixas rocket 4.4 06:07:18 10° SSW 06:10:12 27° SSE 06:13:06 10° E
Cosmos 1452 Rocket 3.5 06:05:12 10° NNW 06:10:29 74° WSW 06:15:44 10° SSE
Tiangong 2 2.1 06:10:04 12° WSW 06:12:49 40° S 06:15:48 10° ESE
Cosmos 2154 Rocket 4.1 06:06:57 10° SSW 06:13:01 53° WNW 06:19:05 10° N
Cosmos 2237 Rocket 3.9 06:16:01 12° NW 06:17:42 13° NW 06:20:21 10° N
BREEZE-M DEB (TANK) 4.5 06:01:52 10° W 06:18:23 71° N 06:22:39 10° E
IRS-1A Rocket 4.3 06:13:01 10° N 06:18:40 70° WNW 06:24:24 10° SSW
Meteor 2-4 Rocket 3.9 06:17:29 10° NNW 06:22:46 51° W 06:28:09 10° SSW
Cosmos 1340 2.6 06:19:26 10° NNW 06:23:14 83° WSW 06:27:01 10° S
Helios 1B rocket 2.5 06:19:19 10° S 06:23:26 64° WSW 06:27:34 10° NNW
AQUARIUS 4.2 06:20:35 10° NNE 06:25:06 87° WNW 06:29:37 10° SSW
CZ-2C R/B 2.5 06:22:23 10° NNE 06:27:37 84° WNW 06:32:44 10° SSW
YAOGAN 1 2.6 06:24:32 10° NNE 06:28:54 85° WNW 06:33:14 10° SSW
Cosmos 1484 Rocket 3.9 06:25:55 10° NNE 06:29:34 47° E 06:33:13 10° S
CSL-04 Debris 4.5 06:26:12 10° N 06:31:21 45° WNW 06:36:32 10° SW
CSL-04 Rocket 4.2 06:26:14 10° N 06:31:23 39° WNW 06:36:27 10° SW
Lacrosse 5 rocket 3.1 06:30:45 10° NW 06:33:58 21° N 06:37:18 10° NE
Meteor 1-5 Rocket 4.1 06:31:49 10° SSW 06:37:11 73° WNW 06:42:31 10° N
SJ-7 4.4 06:34:46 10° N 06:38:56 66° WNW 06:43:02 10° SSW
SMAP 3.1 06:34:34 10° N 06:39:13 66° WNW 06:43:49 10° SSW
Cosmos 1025 Rocket 3.8 06:35:22 10° NNW 06:39:16 31° W 06:43:08 10° SSW
CENTAUR R/B 3.7 06:34:08 10° W 06:39:41 27° NNW 06:45:50 10° NE
Cosmos 1602 Rocket 4.3 06:37:14 10° N 06:41:42 58° ENE 06:46:06 10° SSE
Cosmos 2369 Rocket 2.9 06:37:22 10° NW 06:42:36 38° WSW 06:47:47 10° S
Cosmos 1603 4.4 06:37:46 10° WSW 06:42:54 33° NW 06:48:01 10° NNE
Cosmos 44 3.5 06:37:40 10° SW 06:43:02 88° NW 06:48:14 10° NE
Okean 1 Rocket 4.3 06:41:05 10° WSW 06:44:28 21° WNW 06:47:50 10° NNW
MSX 4.0 06:40:25 10° NNE 06:46:12 84° ESE 06:51:57 10° SSW
Cosmos 1269 Rocket 4.3 06:42:17 10° SSW 06:47:34 79° ESE 06:52:53 10° NNE
Cosmos 839 Rocket 4.1 06:41:04 10° NW 06:47:53 79° WSW 06:54:00 10° SSE
